Showing default

BRISAT, 41591

Orbit data source: Space-Track

BRISAT, 41591 is a payload satellite owned by Bank Rakyat Id. (ID) in GEO that was launched on Sat, 18 Jun 2016 UTC via an ARIANE 5ECA launch vehicle from the French Guiana (FRGUI). Payload-class satellites include a variety of spacecraft equipped with specific instruments for various scientific and technological missions. These include communications satellites like Starlink; space stations such as the ISS; scientific satellites like the Hubble; Earth observation satellites from companies like Planet Labs, Umbra, and HawkEye 360; GPS; miniature CubeSats for education and research; and military/defense satellites.

Not visible in the next 10 days
Identifier
41591, 2016-039A
Orbit
GEO
Country
Flag of UnknownUnknown / INDO
Related business
Manufacturer
SS/Loral (MDA)
Mission
Operational Commercial Communications
Bus & Motor
SSL-1300, R-4D
Mass
3,540 kg wet, ~2,000 kg dry
Launch date (UTC)
2016-06-18 (9 years ago)
Launch vehicle
ARIANE 5ECA
Launch site
French Guiana (FRGUI)
Object type
Payload
Rocket body
Debris
Shape & HBR
Box + 2 Pan + 1 Dish, 15.5 m
Radar Cross Section
33.485 m², Large (>1 m²)

Expand to show TLE details & history
Last TLE update: 2 days ago

TLE from 2 days ago
0 BRISAT
1 41591U 16039A   25309.56017140 -.00000185  00000-0  00000-0 0  9997
2 41591   0.0147 273.8737 0002329 308.0205 175.3339  1.00270896 34365
Epoch: 2025-11-05T13:26Z
TLE epoch observation values (Epoch: 2025-11-05T13:26:38.808Z)
Latitude
0.0314°
Longitude
150.49944°
Altitude
35,796.17 km
Speed
3.074 km/s
True Right ascension
02h 28m 46s
True Declination
0° 01' 53"
Sunlit
Object was in daylight at epoch
Visualization orbit readout
Latitude
Unknown
Longitude
Unknown
Altitude
Unknown
Speed
Unknown
Apparent Right ascension
Unknown
Apparent Declination
Unknown
Sunlit
N/A
Visualization observer readout
Local Sidereal Time
05:53:23
Azimuth
Unknown
Elevation
Unknown
Doppler factor
Unknown
Orbital elements
Apogee altitude
35,797.735 km
Perigee altitude
35,778.094 km
Semi-major axis
42,166.052 km
Eccentricity
0.00023
Inclination
0.0147°
RAAN
273.8737°
Arg. of periapsis
308.0205°
True anomaly
175.33607°
Mean anomaly
175.3339°
Eccentric anomaly
175.33499°
Mean motion
0.25067 °/min
Orbital period
1,436.16 mins
BSTAR
0
Loading maneuver chart data...
Computing Atmospheric mass density...
Loading historical data...
Loading historical data...
Loading historical data...
Loading historical data...
Loading historical data...
Loading historical data...
Loading historical data...
Other satellites on launch #39 in the year 2016 (2016-06-18 UTC)

Documentation

Showing up to 5 results
|